Zurück zum Katalog

HORN-R

AktivWissenschaftSSO
NORAD 69507·PAYLOAD·🇯🇵 Japan

Gestartet Jun 12, 2026 von Tanegashima Space Center

Loading…

Nächste Überflüge (nächste 24 Stunden)

TLE

AktuellSource: Space-Track

Epoche: Sep 11, 2026, 21:48 UTC

1 69507U 26132F   26254.90891006  .00001663  00000-0  81600-4 0  9998
2 69507  97.6726 318.8096 0005172  33.1365 327.0192 15.19541379 13853

Verfolge HORN-R in Echtzeit mit AllMySat

Download on the App Store